WICT2: Wichita River At Wichita Falls, TX

                                SHEF ID:       WICT2     Wichita Rv at Wichita Falls, TX
STATION TYPE:
Regulating: Stage = 18.50, Flow = 5482

PRECIP STAGE RIV-FLOW WTR-TEMP CONDUCT BAT-LOAD
in ft cfs F umho/cm volt
Ccp-Rev Ccp-Rev Ccp-Rev Ccp-Rev Ccp-Rev Ccp-Rev
(America/Chicago)
03/13 00:00 ---- 2.09 18 60.03 7018 12.11
03/13 01:00 ---- 2.08 18 59.49 6988 12.08
03/13 02:00 ---- 2.08 18 59.04 7038 12.00
03/13 03:00 ---- 2.08 18 58.60 7034 12.02
03/13 04:00 ---- 2.08 18 58.15 7072 12.00
03/13 05:00 ---- 2.08 18 57.88 7107 11.98
03/13 06:00 ---- 2.08 18 57.61 7180 11.94
03/13 07:00 ---- 2.07 17 57.31 7241 11.91
03/13 08:00 ---- 2.07 17 56.97 7259 11.89
03/13 09:00 ---- 2.06 16 56.70 7231 12.07
03/13 10:00 ---- 2.07 17 56.66 7211 12.91
03/13 11:00 ---- 2.06 16 57.27 7251 13.01
03/13 12:00 ---- 2.05 16 58.37 7346 12.72
03/13 13:00 ---- 2.05 16 59.79 7345 12.55
03/13 14:00 ---- 2.06 16 61.54 7361 12.51
03/13 15:00 ---- 2.06 16 63.37 7347 12.46
03/13 16:00 ---- 2.06 16 64.85 7224 12.41
03/13 17:00 ---- 2.06 16 65.98 7097 12.34
03/13 18:00 ---- 2.09 18 66.72 6981 12.26
03/13 19:00 ---- 2.07 17 66.69 6984 12.16
03/13 20:00 ---- 2.08 18 66.11 7020 12.13
03/13 21:00 ---- 2.09 18 65.39 7108 12.12
03/13 22:00 ---- 2.07 17 64.58 7173 12.11
03/13 23:00 ---- 2.08 18 64.00 7212 12.08
Data processed at Sat 14Mar2026 04:58 GMT

NOTICE: If you are parsing this page

Please convert to using our Data API. Starting early 2026 we will be migrating to: https://water.usace.army.mil with modern pages rendered in JavaScript. When this migration completes you will no longer be able to scrape this page! CWMSDataAPI (CDA)

Timeseries IDs (TSIDs)

TSIDs used from left to right in the data table
WFAL.Precip-Inc.Total.1Hour.1Hour.Ccp-Rev
WFAL.Stage.Inst.1Hour.0.Ccp-Rev
WFAL.Flow.Inst.1Hour.0.Ccp-Rev
WFAL.Temp-Water.Inst.1Hour.0.Ccp-Rev
WFAL.Cond-Water.Inst.1Hour.0.Ccp-Rev
WFAL.Volt-Battery Load.Inst.1Hour.0.Ccp-Rev

                            

All information presented herein is the property of the government of the United States of America and may be revised or deleted at any time without prior notice. Dissemination of this information without the expressed written consent of the Public Affairs Office, Tulsa District U.S. Army Corps of Engineers is strictly prohibited. These data are gathered electronically and, as presented, have NOT undergone any form of quality control. These data are NOT guaranteed to be valid or correct.